Parkersburg, WV

7:05 AM EDT on March 28, 2017 (GMT -0400)
Wood County Wilson

Weather History for KPKB - April, 2013

Change the Weather History Date:

Sunday, April 21, 2013

  Actual Average Record
Temperature  
Mean Temperature 43 °F 56 °F  
Max Temperature 58 °F 68 °F 91 °F (1985)
Min Temperature 28 °F 44 °F 27 °F (1953)
Degree Days  
Heating Degree Days 22 10  
Month to date heating degree days 238 268  
Since 1 July heating degree days 4786 4729  
Cooling Degree Days 0 1  
Month to date cooling degree days 29 11  
Year to date cooling degree days 29 14  
Moisture  
Dew Point 23 °F    
Average Humidity 56    
Maximum Humidity 92    
Minimum Humidity 20    
Precipitation  
Precipitation 0.00 in 0.12 in 0.87 in (2002)
Month to date precipitation 1.05 2.27  
Year to date precipitation 9.26 11.65  
Sea Level Pressure  
Sea Level Pressure 30.50 in    
Wind  
Wind Speed 5 mph (NE)    
Max Wind Speed 14 mph    
Max Gust Speed 18 mph    
Visibility 10 miles    
Events      
T = Trace of Precipitation, MM = Missing Value Source: NWS Daily Summary

Daily Weather History Graph

Daily Weather History Graph

Search for Another Location

Airport or City:

Trip Planner

Search our weather history database for the weather conditions in past years. The results will help you decide how hot, cold, wet, or windy it might be!

Date:

Astronomy

Apr. 21, 2013 Rise Set
Actual Time 6:39 AM EDT 8:09 PM EDT
Civil Twilight 6:11 AM EDT 8:37 PM EDT
Nautical Twilight 5:37 AM EDT 9:11 PM EDT
Astronomical Twilight 5:01 AM EDT 9:47 PM EDT
Moon 3:54 PM EDT (4/21) 3:59 AM EDT (4/21)
Length of Visible Light 14h 26m
Length of Day
13h 29m
Waxing Gibbous, 79% of the Moon is Illuminated
Apr 21
Waxing Gibbous
Apr 25
Full
May 2
Last Quarter
May 9
New
May 18
First Quarter

Hourly Weather History & Observations

Time (EDT) Temp. Windchill Dew Point Humidity Pressure Visibility Wind Dir Wind Speed Gust Speed Precip Events Conditions
12:53 AM 34.0 °F - 27.0 °F 75% 30.45 in 10.0 mi Calm Calm - N/A   Clear
1:53 AM 30.9 °F - 27.0 °F 85% 30.47 in 10.0 mi Calm Calm - N/A   Clear
2:53 AM 30.0 °F - 27.0 °F 88% 30.47 in 9.0 mi Calm Calm - N/A   Clear
3:53 AM 30.0 °F - 26.1 °F 85% 30.48 in 7.0 mi Calm Calm - N/A   Clear
4:53 AM 28.9 °F - 26.1 °F 89% 30.50 in 9.0 mi Calm Calm - N/A   Clear
5:53 AM 28.9 °F - 26.1 °F 89% 30.52 in 8.0 mi Calm Calm - N/A   Clear
6:53 AM 28.0 °F - 26.1 °F 92% 30.55 in 7.0 mi Calm Calm - N/A   Clear
7:53 AM 30.9 °F - 27.0 °F 85% 30.57 in 7.0 mi Calm Calm - N/A   Clear
8:53 AM 39.0 °F 33.4 °F 27.0 °F 62% 30.58 in 10.0 mi East 8.1 mph - N/A   Clear
9:53 AM 43.0 °F 38.2 °F 24.1 °F 47% 30.59 in 10.0 mi ENE 8.1 mph - N/A   Clear
10:53 AM 45.0 °F 40.1 °F 23.0 °F 42% 30.59 in 10.0 mi East 9.2 mph - N/A   Clear
11:53 AM 48.0 °F - 21.9 °F 36% 30.59 in 10.0 mi ENE 11.5 mph - N/A   Clear
12:53 PM 50.0 °F - 21.0 °F 32% 30.56 in 10.0 mi Variable 6.9 mph - N/A   Clear
1:53 PM 51.1 °F - 19.9 °F 29% 30.53 in 10.0 mi Variable 5.8 mph - N/A   Clear
2:53 PM 54.0 °F - 19.9 °F 26% 30.50 in 10.0 mi NNE 8.1 mph - N/A   Clear
3:53 PM 55.9 °F - 16.0 °F 21% 30.48 in 10.0 mi Variable 5.8 mph - N/A   Clear
4:53 PM 57.0 °F - 17.1 °F 21% 30.45 in 10.0 mi Variable 5.8 mph - N/A   Clear
5:53 PM 55.9 °F - 17.1 °F 22% 30.45 in 10.0 mi NE 8.1 mph - N/A   Clear
6:53 PM 55.9 °F - 19.0 °F 24% 30.44 in 10.0 mi NNE 6.9 mph - N/A   Clear
7:53 PM 53.1 °F - 19.0 °F 26% 30.44 in 10.0 mi NNE 6.9 mph - N/A   Clear
8:53 PM 51.1 °F - 19.9 °F 29% 30.44 in 10.0 mi NNE 5.8 mph - N/A   Clear
9:53 PM 48.9 °F - 21.0 °F 33% 30.45 in 10.0 mi NE 5.8 mph - N/A   Clear
10:53 PM 46.9 °F - 21.0 °F 36% 30.45 in 10.0 mi NE 5.8 mph - N/A   Clear
11:53 PM 45.0 °F 41.8 °F 21.0 °F 39% 30.44 in 10.0 mi NNE 5.8 mph - N/A   Clear